{"data":{"norad_id":62274,"epoch":"2026-09-21T10:06:07.338528Z","epoch_age_seconds":98067,"freshness":"FRESH","line1":"1 62274U 24237H   26264.42091827  .00138060  00000+0  10624-2 0  9994","line2":"2 62274  43.0003 316.9916 0001117 261.0270  99.0471 15.70824060103788","mean_motion":15.7082406,"eccentricity":0.0001117,"inclination_deg":43.0003,"raan_deg":316.9916,"arg_perigee_deg":261.027,"mean_anomaly_deg":99.0471,"bstar":0.0010624,"rev_number":10378,"period_min":91.671628711875,"perigee_km":355.78835796673,"apogee_km":357.29288494737,"semimajor_km":6734.677621457,"source":"CELESTRAK","updated_at":"2026-09-22T09:00:49.567109Z"}}